sat.trackr.live / text

‹ back to catalog

STARLINK-11275 [DTC]

NORAD 61579 · 2024-187F

PAYLOAD ACTIVE UNKNOWN

§ Identity

Operator
Country
US
Launch date
2024-10-18
Launch site
AFETR
Launch vehicle
Mass (kg)
RCS (m²)

Purposes: comms

External: N2YO · Heavens-Above · Gunter

§ Orbital elements

Epoch: 2026-09-21T17:25:47.616384Z

Period
91.74 min
Inclination
53.1586°
Eccentricity
0.0000705
Mean motion
15.69726251 rev/d
Perigee alt
359.2 km
Apogee alt
360.2 km
Semi-major
6,737.8 km
B*
-2.3864e-5
RAAN
49.5998°
Arg perigee
92.7988°
Mean anomaly
267.3111°
Rev number
11,149

§ Raw data

STARLINK-11275 [DTC]1 61579U 24187F   26264.72624556 -.00003480  00000+0 -23864-4 0  99902 61579  53.1586  49.5998 0000705  92.7988 267.3111 15.69726251111498

JSON: /api/v1/satellites/61579 · /tle

For live sub-satellite position, see the globe view (requires WebGL).

§ Visibility from observer

Set your observer location to see the next 7 days of passes ≥ 10°. The values pass through the URL so the page stays shareable.

No JS? Fill the form by hand. The geolocation button needs JavaScript.